Weather History for KLSE - October, 2012

Change the Weather History Date:

Thursday, October 11, 2012

  Actual Average Record
Temperature  
Mean Temperature 43 °F 52 °F  
Max Temperature 54 °F 62 °F 86 °F (1928)
Min Temperature 32 °F 42 °F 22 °F (1987)
Degree Days  
Heating Degree Days 22 13  
Month to date heating degree days 163 127  
Since 1 July heating degree days 331 287  
Cooling Degree Days 0 0  
Month to date cooling degree days 0 7  
Year to date cooling degree days 1081 781  
Moisture  
Dew Point 27 °F    
Average Humidity 47    
Maximum Humidity 61    
Minimum Humidity 33    
Precipitation  
Precipitation T in 0.07 in 1.45 in (1983)
Month to date precipitation 0.17 0.88  
Year to date precipitation 20.30 28.40  
Snow  
Snow 0.00 in 0.00 in 0.50 in (1909)
Month to date snowfall 0.0 0.0  
Since 1 July snowfall 0.0 0.0  
Snow Depth 0.00 in    
Sea Level Pressure  
Sea Level Pressure 30.07 in    
Wind  
Wind Speed 10 mph (WNW)    
Max Wind Speed 24 mph    
Max Gust Speed 31 mph    
Visibility 10 miles    
Events      
T = Trace of Precipitation, MM = Missing Value Source: NWS Daily Summary

Daily Weather History Graph

Daily Weather History Graph

Search for Another Location

Airport or City:

Trip Planner

Search our weather history database for the weather conditions in past years. The results will help you decide how hot, cold, wet, or windy it might be!

Date:

Astronomy

Oct. 11, 2012 Rise Set
Actual Time 7:15 AM CDT 6:27 PM CDT
Civil Twilight 6:46 AM CDT 6:56 PM CDT
Nautical Twilight 6:12 AM CDT 7:29 PM CDT
Astronomical Twilight 5:39 AM CDT 8:02 PM CDT
Moon 2:46 AM CDT (10/11) 4:10 PM CDT (10/11)
Length of Visible Light 12h 09m
Length of Day
11h 12m
Waning Crescent, 18% of the Moon is Illuminated
Oct 11
Waning Crescent
Oct 15
New
Oct 21
First Quarter
Oct 29
Full
Nov 6
Last Quarter

Hourly Weather History & Observations

Time (CDT) Temp. Windchill Dew Point Humidity Pressure Visibility Wind Dir Wind Speed Gust Speed Precip Events Conditions
12:53 AM 46.9 °F - 30.0 °F 52% 29.98 in 10.0 mi South 13.8 mph - N/A   Overcast
1:53 AM 46.9 °F - 28.9 °F 50% 29.95 in 10.0 mi South 13.8 mph - N/A   Overcast
2:53 AM 48.9 °F - 26.1 °F 41% 29.91 in 10.0 mi SSW 20.7 mph 28.8 mph N/A   Partly Cloudy
3:53 AM 46.9 °F - 27.0 °F 46% 29.91 in 10.0 mi South 17.3 mph - N/A   Mostly Cloudy
4:53 AM 48.9 °F - 28.9 °F 46% 29.91 in 10.0 mi SSW 11.5 mph - N/A   Mostly Cloudy
5:53 AM 51.1 °F - 28.9 °F 43% 29.94 in 10.0 mi South 6.9 mph 17.3 mph N/A   Partly Cloudy
6:53 AM 52.0 °F - 28.9 °F 41% 29.93 in 10.0 mi SW 16.1 mph 24.2 mph N/A   Clear
7:53 AM 51.1 °F - 30.0 °F 44% 29.96 in 10.0 mi SW 10.4 mph - N/A   Scattered Clouds
8:53 AM 52.0 °F - 30.9 °F 45% 29.98 in 10.0 mi WSW 10.4 mph - N/A   Partly Cloudy
9:53 AM 53.1 °F - 32.0 °F 45% 30.00 in 10.0 mi WNW 12.7 mph - N/A   Overcast
10:53 AM 50.0 °F - 30.9 °F 48% 30.06 in 10.0 mi North 13.8 mph 24.2 mph N/A   Partly Cloudy
11:53 AM 50.0 °F - 33.1 °F 52% 30.09 in 10.0 mi NW 15.0 mph - 0.00 in   Mostly Cloudy
12:53 PM 50.0 °F - 32.0 °F 50% 30.12 in 10.0 mi NNW 16.1 mph 20.7 mph N/A   Mostly Cloudy
1:53 PM 48.0 °F - 30.0 °F 50% 30.14 in 10.0 mi NNW 11.5 mph - N/A   Overcast
2:53 PM 50.0 °F - 27.0 °F 41% 30.15 in 10.0 mi NW 11.5 mph - N/A   Partly Cloudy
3:53 PM 50.0 °F - 26.1 °F 39% 30.16 in 10.0 mi NW 9.2 mph - N/A   Scattered Clouds
4:53 PM 50.0 °F - 28.0 °F 43% 30.17 in 10.0 mi WNW 9.2 mph - N/A   Overcast
5:14 PM 50.0 °F - 21.2 °F 32% 30.17 in 10.0 mi North 15.0 mph - N/A   Scattered Clouds
5:53 PM 48.9 °F - 21.0 °F 33% 30.19 in 10.0 mi NNW 10.4 mph - N/A   Partly Cloudy
6:53 PM 48.0 °F - 24.1 °F 39% 30.22 in 10.0 mi NNW 8.1 mph - N/A   Clear
8:53 PM 42.1 °F 37.1 °F 17.1 °F 37% 30.29 in 10.0 mi North 8.1 mph - N/A   Clear
10:53 PM 39.0 °F - 19.9 °F 46% 30.35 in 10.0 mi Calm Calm - N/A   Clear